Weather History for Kenai, AK

Change the Weather History Date:

Thursday, December 26, 2013

  Actual Average Record
Temperature  
Mean Temperature -12 °F -  
Max Temperature -4 °F 25 °F 44 °F (1982)
Min Temperature -20 °F 9 °F -40 °F (1961)
Degree Days  
Heating Degree Days 77    
Moisture  
Dew Point -20 °F    
Average Humidity 80    
Maximum Humidity 87    
Minimum Humidity 74    
Precipitation  
Precipitation 0.00 in - - ()
Sea Level Pressure  
Sea Level Pressure 29.76 in    
Wind  
Wind Speed 2 mph (NNE)    
Max Wind Speed 5 mph    
Max Gust Speed -    
Visibility 10 miles    
Events      
Averages and records for this station are not official NWS values.
T = Trace of Precipitation, MM = Missing Value Source: NWS Daily Summary

Daily Weather History Graph

Daily Weather History Graph

Search for Another Location

Airport:

Trip Planner

Search our weather history database for the weather conditions in past years. The results will help you decide how hot, cold, wet, or windy it might be!

Date:

Astronomy

Dec. 26, 2013 Rise Set
Actual Time 10:14 AM AKST 3:57 PM AKST
Civil Twilight 9:14 AM AKST 4:57 PM AKST
Nautical Twilight 8:16 AM AKST 5:55 PM AKST
Astronomical Twilight 7:24 AM AKST 6:47 PM AKST
Moon 2:36 AM AKST (12/26) 12:49 PM AKST (12/26)
Length of Visible Light 7h 42m
Length of Day
5h 43m
Last Quarter, 37% of the Moon is Illuminated
Dec 26
Last Quarter
Jan 1
New
Jan 7
First Quarter
Jan 15
Full
Jan 23
Last Quarter

Hourly Weather History & Observations

Time (AKST) Temp. Windchill Dew Point Humidity Pressure Visibility Wind Dir Wind Speed Gust Speed Precip Events Conditions
12:53 AM -20.0 °F -30.7 °F -26.0 °F 74% 29.77 in 10.0 mi North 3.5 mph - N/A   Clear
1:53 AM -20.0 °F -30.7 °F -25.1 °F 78% 29.76 in 10.0 mi NE 3.5 mph - N/A   Clear
3:53 AM -18.9 °F -29.5 °F -24.0 °F 78% 29.75 in 10.0 mi NE 3.5 mph - N/A   Clear
4:53 AM -18.9 °F -29.5 °F -24.0 °F 78% 29.74 in 10.0 mi NNW 3.5 mph - N/A   Clear
5:53 AM -16.1 °F - -20.9 °F 79% 29.74 in 10.0 mi Calm Calm - N/A   Clear
6:53 AM -20.0 °F - -25.1 °F 78% 29.73 in 10.0 mi Calm Calm - N/A   Clear
7:53 AM -18.9 °F - -24.0 °F 78% 29.73 in 10.0 mi Calm Calm - N/A   Clear
8:53 AM -20.9 °F - -26.0 °F 77% 29.73 in 10.0 mi Calm Calm - N/A   Clear
9:53 AM -20.0 °F - -26.0 °F 74% 29.74 in 10.0 mi Calm Calm - N/A   Clear
10:53 AM -16.1 °F -28.6 °F -20.0 °F 82% 29.75 in 10.0 mi NNE 4.6 mph - N/A   Clear
11:53 AM -14.1 °F -23.9 °F -18.0 °F 82% 29.75 in 10.0 mi NE 3.5 mph - N/A   Clear
12:53 PM -11.9 °F -21.5 °F -15.0 °F 86% 29.76 in 10.0 mi NE 3.5 mph - N/A   Partly Cloudy
1:53 PM -9.0 °F - -13.0 °F 83% 29.76 in 10.0 mi Calm Calm - N/A   Clear
2:53 PM -4.0 °F - -8.0 °F 83% 29.75 in 10.0 mi Calm Calm - N/A   Clear
3:53 PM -6.0 °F - -9.0 °F 87% 29.75 in 10.0 mi Calm Calm - N/A   Clear
4:53 PM -11.0 °F - -14.1 °F 86% 29.76 in 10.0 mi Calm Calm - N/A   Clear
5:53 PM -9.9 °F -19.2 °F -14.1 °F 82% 29.76 in 10.0 mi North 3.5 mph - N/A   Clear
6:53 PM -14.1 °F - -18.0 °F 82% 29.77 in 10.0 mi Calm Calm - N/A   Clear
7:53 PM -17.0 °F -27.2 °F -22.0 °F 78% 29.78 in 10.0 mi North 3.5 mph - N/A   Clear
8:53 PM -15.0 °F -25.0 °F -20.0 °F 78% 29.79 in 10.0 mi North 3.5 mph - N/A   Clear
9:53 PM -20.9 °F -31.7 °F -26.0 °F 77% 29.81 in 10.0 mi NNE 3.5 mph - N/A   Clear
10:53 PM -18.0 °F - -23.1 °F 78% 29.81 in 10.0 mi Calm Calm - N/A   Clear
11:53 PM -18.0 °F -28.5 °F -22.0 °F 82% 29.83 in 10.0 mi North 3.5 mph - N/A   Clear